Orbital Elements at Epoch 2459200.5 (2020-Dec-17.0) TDB
Reference: JPL 40 (heliocentric ecliptic J2000)
Element | Value | Uncertainty (1-sigma) | Units |
e | .01488674762141311 | 3.8119e-08 | |
a | 2.565653446433587 | 1.2227e-08 | au |
q | 2.527459211092522 | 9.5983e-08 | au |
i | 15.50153867437427 | 3.9339e-06 | deg |
node | 104.358889209572 | 1.3673e-05 | deg |
peri | 119.8806516360991 | 0.00014545 | deg |
M | 191.0572269069742 | 0.00014755 | deg |
tp | 2459904.921391177582 (2022-Nov-21.42139118) | 0.0006176 | TDB |
period | 1501.0508954076 4.11 | 1.073e-05 2.938e-08 | d yr |
n | .2398319744529678 | 1.7144e-09 | deg/d |
Q | 2.603847681774653 | 1.2409e-08 | au |
|
| | Orbit Determination Parameters
Additional Information
|